Regional Weather Roundup
Issued by NWS

Home | Current Version | Previous Version | Text Only | Print | Product List | Glossary Off
Versions: 1 2 3 4 5 6 7 8 9 10 11 12 13 14 15 16 17 18 19 20 21 22 23 24 25 26 27

000
ASUS45 KBOU 230807
RWRCO

WEATHER ROUNDUP FOR COLORADO
NATIONAL WEATHER SERVICE DENVER/BOULDER CO
200 AM MDT THU OCT 23 2014

NOTE: "FAIR" INDICATES FEW OR NO CLOUDS BELOW 12000 FEET WITH NO
SIGNIFICANT WEATHER AND/OR OBSTRUCTIONS TO VISIBILITY.

COZ001>005-013-030-031-230900-
...NORTHWEST COLORADO...

CITY           SKY/WX    TMP DP  RH WIND       PRES   REMARKS
CRAIG          CLEAR     31  28  89 CALM      30.25S
HAYDEN         CLEAR     36  30  80 SE9       30.25S
MEEKER         CLEAR     36  33  89 N3        30.26S
MOUNT WERNER   NOT AVBL
STEAMBOAT SPGS CLEAR     35  31  86 CALM      30.26F
WALDEN         CLEAR     30  27  86 E7        30.28F WCI  23
$$

COZ006>008-011-230900-
...WEST CENTRAL VALLEYS...

CITY           SKY/WX    TMP DP  RH WIND       PRES   REMARKS
GRAND JUNCTION CLEAR     46  37  71 SE12      30.18S
MONTROSE       CLEAR     47  36  65 SE9       30.26R
EAGLE          CLEAR     36  34  93 E6        30.32R
RIFLE          CLEAR     40  36  86 SE5       30.25R
DELTA          CLEAR     45  34  65 E6        30.23S
NUCLA          NOT AVBL
$$

COZ017>023-064>068-230900-
...SOUTHWEST COLORADO...

CITY           SKY/WX    TMP DP  RH WIND       PRES   REMARKS
DURANGO        CLEAR     39  34  82 N6        30.28R
CORTEZ         CLEAR     40  34  79 NE5       30.24F
PAGOSA SPRINGS CLEAR     36  36  99 CALM      30.32S
TELLURIDE      CLEAR     39  33  80 SE7       30.40S
WOLF CREEK PAS CLEAR     32  32 100 SW10        N/A  WCI  24
$$

COZ009-010-012-014-032>034-037-058>063-230900-
...CENTRAL COLORADO...

CITY           SKY/WX    TMP DP  RH WIND       PRES   REMARKS
ASPEN          CLEAR     35  31  85 SW5       30.32R WCI  31
BUENA VISTA    CLEAR     32  28  86 W5        30.31R WCI  27
COPPER MTN     MOCLDY    34  25  69 SW15G22   30.45R WCI  24
BERTHOUD PASS  FAIR      27  23  86 NW33G39   30.42S WCI   9
COTTONWOOD PAS CLEAR     43  23  45 NW9       30.36F
GUNNISON       CLEAR     36  28  75 CALM      30.35S
KREMMLING      PTCLDY    30  28  93 CALM        N/A
LEADVILLE      CLEAR     29  25  85 NE6       30.37R WCI  23
MONARCH PASS   FOG       30  30 100 W26       30.53F VSB<1/4 WCI  16
SALIDA         CLEAR     42  33  70 NW3       30.35F
SUNLIGHT       CLEAR     36  32  87 CALM      30.43S
WILKERSON PASS NOT AVBL
$$

COZ069>075-230900-
...SAN LUIS VALLEY/SANGRE DE CRISTO MOUNTAINS...

CITY           SKY/WX    TMP DP  RH WIND       PRES   REMARKS
ALAMOSA        PTCLDY    33  28  81 CALM      30.29S
LA VETA PASS   CLEAR     36  30  80 S8        30.37F
SAGUACHE       CLEAR     39  32  75 NW14      30.31S
$$

COZ035-036-038>040-230900-
...NORTHERN COLORADO FRONT RANGE...

CITY           SKY/WX    TMP DP  RH WIND       PRES   REMARKS
DENVER INTL AP PTCLDY    47  37  68 W5        30.14S
DMNS CITY PARK   N/A     46  39  78 SE1       30.15R
AURORA         PTCLDY    46  39  76 S6        30.16R
FRONT RANGE AP CLEAR     43  39  87 S9        30.15S
ERIE MUNI ARPT CLEAR     41  37  84 CALM      30.15R
BOULDER MUN AP CLEAR     46  37  71 S3        30.15R
CENTENNIAL     PTCLDY    45  37  73 CALM      30.16S
BROOMFIELD     CLEAR     50  36  57 NW10      30.16R
FORT COLLINS   CLEAR     45  36  70 N7        30.16R
LONGMONT       CLEAR     42  36  79 CALM      30.17R
$$

COZ041-046-047-076>085-087-088-230900-
...PIKES PEAK/PALMER DIVIDE AND SOUTHERN FOOTHILLS...

CITY           SKY/WX    TMP DP  RH WIND       PRES   REMARKS
COLO. SPRINGS  CLEAR     43  38  82 N9        30.20F
A. F. ACADEMY  CLEAR     37  34  89 N10       30.21S
ELLICOTT       NOT AVBL
FALCON         CLEAR     41  39  91 CALM      30.23S
FORT CARSON    CLEAR     43  38  82 NW3       30.17F
LIMON          CLEAR     41  39  93 CALM      30.15F
MONUMENT HILL  CLEAR     41  37  87 S9        30.21S
TRINIDAD       CLEAR     47  38  71 W6        30.17S
$$

COZ042>045-048>051-090-091-230900-
...NORTHEAST COLORADO...

CITY           SKY/WX    TMP DP  RH WIND       PRES   REMARKS
GREELEY ARPT   CLEAR     37  28  70 N6        30.14S
AKRON          CLEAR     46  32  58 S7        30.12S
BURLINGTON     CLEAR     44  40  85 W3        30.12S
WRAY           CLEAR     42  33  69 SW6       30.10F
STERLING       CLEAR     37  36  93 CALM      30.11S
HOLYOKE        CLEAR     43  32  65 W9        30.10F
FORT MORGAN    CLEAR     47  33  57 NE5       30.13S
$$

COZ086-089-092>099-230900-
...SOUTHEAST COLORADO...

CITY           SKY/WX    TMP DP  RH WIND       PRES   REMARKS
PUEBLO         CLEAR     50  44  80 W6        30.13F
LA JUNTA       PTCLDY    52  46  80 N3        30.11S
LAMAR          MOCLDY    48  45  89 CALM      30.07F
SPRINGFIELD      N/A     47  45  93 NW7       30.11S
$$



USA.gov is the U.S. government's official web portal to all federal, state and local government web resources and services.